{"data":{"norad_id":47844,"epoch":"2026-09-20T00:12:05.346144Z","epoch_age_seconds":71612,"freshness":"FRESH","line1":"1 47844U 21018BK  26263.00839521  .00039383  00000+0  99923-3 0  9996","line2":"2 47844  53.1567  58.8600 0003498 142.4066 217.7184 15.39316233306498","mean_motion":15.39316233,"eccentricity":0.0003498,"inclination_deg":53.1567,"raan_deg":58.86,"arg_perigee_deg":142.4066,"mean_anomaly_deg":217.7184,"bstar":0.00099923,"rev_number":30649,"period_min":93.548029256702,"perigee_km":445.74223505253,"apogee_km":450.51789149,"semimajor_km":6826.2670632713,"source":"CELESTRAK","updated_at":"2026-09-20T09:00:38.753968Z"}}